Tracking 20369 objects as of 18-Feb-2020
HD Live streaming from Space Station
objects crossing your sky now

COSMOS 1388

Track COSMOS 1388 now!
10-day predictions
COSMOS 1388 is classified as:


NORAD ID: 13375
Int'l Code: 1982-073A
Perigee: 1,400.3 km
Apogee: 1,480.8 km
Inclination: 74.0 °
Period: 114.5 minutes
Semi major axis: 7811 km
RCS: 0.6948 m2 (medium)
Launch date: July 21, 1982
Source: Commonwealth of Independent States (former USSR) (CIS)
Launch site: PLESETSK MISSILE AND SPACE COMPLEX (PKMTR)
aabbcc
Your satellite tracking list
Your tracking list is empty




NASA's NSSDC Master Catalog

Two Line Element Set (TLE):
1 13375U 82073A   20048.87527545 -.00000002 +00000-0 +80957-4 0  9992
2 13375 074.0118 255.8886 0051537 080.1151 022.9570 12.57463469725007
Source of the keplerian elements: AFSPC